YAOGAN-30 AB

Satellite information

Favourite Embed

Satellite Type and Status

PAYLOADIN ORBIT

Key statistics

Satellite YAOGAN-30 AB at a glance.

Uptime

1593

Days in orbit

Revolutions

≈ 15.0

Per day

Orbit

LEO

Low Earth Orbit

Inclination

35.0

Latest

Satellite identification and parameters

Extended collection of information and parameters for YAOGAN-30 AB.

Object identification

Identified? True

Debris? False

Object name: YAOGAN-30 AB

International designator: 2021-055B

Object number (NORAD): 48861

Object ID (CCSDS): 48861

Country: PEOPLES REPUBLIC OF CHINA (PRC)

Current information (Y/N): Y

RCS size: LARGE

Orbital parameters

Period: 95.934 minutes

Inclination: 34.9933 deg

SMA: 6941.86 km

Apoapsis: 566.723 km

Periapsis: 560.727 km

RAAN: 125.9024 deg

Eccentricy: 0.00043189

Argument of periapsis: 224.9285 deg

Mean anomaly: 135.1073 deg

Mean motion: 15.01028656 rev/day

Mean motion (dot): 0.00004302 rev/day2

B* drag term: 0.00033204778 1/REarth

Two-line elements (TLE)

Creation date: Oct. 28, 2025, 2:18 a.m.

Reference frame: TEME

Reference center: EARTH

Epoch: Oct. 27, 2025, 10:20 p.m. UTC

TLE line 0: 0 YAOGAN-30 AB

TLE line 1: 1 48861U 21055B 25300.93080471 .00004302 00000-0 33205-3 0 9997

TLE line 2: 2 48861 34.9933 125.9024 0004319 224.9285 135.1073 15.01028656238234

Live tracking on map

Real-time ground track for satellite YAOGAN-30 AB.

In-orbit conjunctions

There are no conjunctions computed for YAOGAN-30 AB, at the moment. Check back to stay up to date, as we update our databases every day.

Go to all conjunctions

Associated space launch

The Yaogan-30 is a series of military remote sensing satellites which are launched in triplets. The satellites are spaced by 120° in their orbit.

YAOGAN-30 AB was lifted into orbit during the mission ‘Long March 2C | Yaogan-30-09’, on board a Long March 2 space rocket.

The launch took place on June 18, 2021, 6:30 a.m. from Launch Complex 3 (LC-3/LA-1).

For more information about the launch, click the button.

Launch to space Long March 2C | Yaogan-30-09
Long March 2C | Yaogan-30-09

Agency: N/A

Status: Launch Successful

Launch date: June 18, 2021, 6:30 a.m. UTC

Rocket: Long March 2

Launch pad: Launch Complex 3 (LC-3/LA-1)

Location: Xichang Satellite Launch Center, People's Republic of China

...

Latest news about this satellite

News about space launch
China launches Chang Zheng 2C with trio of Yaogan-30 satellites

China has successfully launched a Chang Zheng 2C (also known as the Long March 2C) from teh Xichang Satellite Launch Center with three new Yaogan-30 satellites on June 18 at 06:30 UTC / 14:30 local time at the launch site from LC-3 after a 24 hour delay d...

News about space launch
China launches new group of classified Yaogan-30 satellites

China launched a group of classified Yaogan-30 satellites and one commercial satellite on a Long March 2C rocket early Friday.


Newsletter sign-up

Weekly statistics, charts and insights to help you stay on top of the space industry.